Year,Month,Day,Hour,Minute,Value (Times are PST for temperature in C)
2010,07,06,00,00,10.80
2010,07,06,00,01,10.80
2010,07,06,00,02,10.80
2010,07,06,00,03,10.70
2010,07,06,00,04,10.70
2010,07,06,00,05,10.70
2010,07,06,00,06,10.70
2010,07,06,00,07,10.70
2010,07,06,00,08,10.70
2010,07,06,00,09,10.70
2010,07,06,00,10,10.60
2010,07,06,00,11,10.60
2010,07,06,00,12,10.60
2010,07,06,00,13,10.60
2010,07,06,00,14,10.60
2010,07,06,00,15,10.60
2010,07,06,00,16,10.60
2010,07,06,00,17,10.60
2010,07,06,00,18,10.50
2010,07,06,00,19,10.50
2010,07,06,00,20,10.50
2010,07,06,00,21,10.50
2010,07,06,00,22,10.50
2010,07,06,00,23,10.50
2010,07,06,00,24,10.50
2010,07,06,00,25,10.50
2010,07,06,00,26,10.40
2010,07,06,00,27,10.40
2010,07,06,00,28,10.40
2010,07,06,00,29,10.40
2010,07,06,00,30,10.40
2010,07,06,00,31,10.40
2010,07,06,00,32,10.40
2010,07,06,00,33,10.30
2010,07,06,00,34,10.30
2010,07,06,00,35,10.30
2010,07,06,00,36,10.30
2010,07,06,00,37,10.30
2010,07,06,00,38,10.30
2010,07,06,00,39,10.30
2010,07,06,00,40,10.30
2010,07,06,00,41,10.30
2010,07,06,00,42,10.30
2010,07,06,00,43,10.30
2010,07,06,00,44,10.30
2010,07,06,00,45,10.30
2010,07,06,00,46,10.30
2010,07,06,00,47,10.30
2010,07,06,00,48,10.30
2010,07,06,00,49,10.30
2010,07,06,00,50,10.30
2010,07,06,00,51,10.30
2010,07,06,00,52,10.30
2010,07,06,00,53,10.30
2010,07,06,00,54,10.30
2010,07,06,00,55,10.30
2010,07,06,00,56,10.30
2010,07,06,00,57,10.30
2010,07,06,00,58,10.30
2010,07,06,00,59,10.30
2010,07,06,01,00,10.30
2010,07,06,01,01,10.30
2010,07,06,01,02,10.20
2010,07,06,01,03,10.20
2010,07,06,01,04,10.20
2010,07,06,01,05,10.20
2010,07,06,01,06,10.20
2010,07,06,01,07,10.20
2010,07,06,01,08,10.20
2010,07,06,01,09,10.20
2010,07,06,01,10,10.20
2010,07,06,01,11,10.20
2010,07,06,01,12,10.20
2010,07,06,01,13,10.20
2010,07,06,01,14,10.20
2010,07,06,01,15,10.10
2010,07,06,01,16,10.10
2010,07,06,01,17,10.10
2010,07,06,01,18,10.10
2010,07,06,01,19,10.10
2010,07,06,01,20,10.10
2010,07,06,01,21,10.10
2010,07,06,01,22,10.10
2010,07,06,01,23,10.10
2010,07,06,01,24,10.10
2010,07,06,01,25,10.10
2010,07,06,01,26,10.10
2010,07,06,01,27,10.10
2010,07,06,01,28,10.10
2010,07,06,01,29,10.10
2010,07,06,01,30,10.00
2010,07,06,01,31,10.00
2010,07,06,01,32,10.00
2010,07,06,01,33,10.00
2010,07,06,01,34,10.00
2010,07,06,01,35,9.90
2010,07,06,01,36,9.90
2010,07,06,01,37,9.90
2010,07,06,01,38,9.90
2010,07,06,01,39,9.90
2010,07,06,01,40,9.90
2010,07,06,01,41,9.80
2010,07,06,01,42,9.80
2010,07,06,01,43,9.80
2010,07,06,01,44,9.80
2010,07,06,01,45,9.80
2010,07,06,01,46,9.80
2010,07,06,01,47,9.80
2010,07,06,01,48,9.80
2010,07,06,01,49,9.80
2010,07,06,01,50,9.80
2010,07,06,01,51,9.80
2010,07,06,01,52,9.80
2010,07,06,01,53,9.80
2010,07,06,01,54,9.80
2010,07,06,01,55,9.80
2010,07,06,01,56,9.80
2010,07,06,01,57,9.70
2010,07,06,01,58,9.70
2010,07,06,01,59,9.70
2010,07,06,02,00,9.70
2010,07,06,02,01,9.70
2010,07,06,02,02,9.70
2010,07,06,02,03,9.70
2010,07,06,02,04,9.70
2010,07,06,02,05,9.70
2010,07,06,02,06,9.70
2010,07,06,02,07,9.60
2010,07,06,02,08,9.60
2010,07,06,02,09,9.60
2010,07,06,02,10,9.60
2010,07,06,02,11,9.60
2010,07,06,02,12,9.60
2010,07,06,02,13,9.60
2010,07,06,02,14,9.60
2010,07,06,02,15,9.60
2010,07,06,02,16,9.60
2010,07,06,02,17,9.60
2010,07,06,02,18,9.60
2010,07,06,02,19,9.70
2010,07,06,02,20,9.70
2010,07,06,02,21,9.70
2010,07,06,02,22,9.70
2010,07,06,02,23,9.70
2010,07,06,02,24,9.70
2010,07,06,02,25,9.70
2010,07,06,02,26,9.70
2010,07,06,02,27,9.70
2010,07,06,02,28,9.70
2010,07,06,02,29,9.70
2010,07,06,02,30,9.70
2010,07,06,02,31,9.70
2010,07,06,02,32,9.70
2010,07,06,02,33,9.70
2010,07,06,02,34,9.70
2010,07,06,02,35,9.70
2010,07,06,02,36,9.70
2010,07,06,02,37,9.70
2010,07,06,02,38,9.70
2010,07,06,02,39,9.70
2010,07,06,02,40,9.70
2010,07,06,02,41,9.80
2010,07,06,02,42,9.80
2010,07,06,02,43,9.80
2010,07,06,02,44,9.80
2010,07,06,02,45,9.80
2010,07,06,02,46,9.80
2010,07,06,02,47,9.80
2010,07,06,02,48,9.80
2010,07,06,02,49,9.80
2010,07,06,02,50,9.80
2010,07,06,02,51,9.80
2010,07,06,02,52,9.80
2010,07,06,02,53,9.70
2010,07,06,02,54,9.70
2010,07,06,02,55,9.70
2010,07,06,02,56,9.70
2010,07,06,02,57,9.70
2010,07,06,02,58,9.70
2010,07,06,02,59,9.70
2010,07,06,03,00,9.60
2010,07,06,03,01,9.60
2010,07,06,03,02,9.60
2010,07,06,03,03,9.60
2010,07,06,03,06,9.60
2010,07,06,03,07,9.60
2010,07,06,03,08,9.60
2010,07,06,03,09,9.60
2010,07,06,03,10,9.60
2010,07,06,03,11,9.60
2010,07,06,03,12,9.60
2010,07,06,03,13,9.60
2010,07,06,03,14,9.60
2010,07,06,03,15,9.60
2010,07,06,03,16,9.50
2010,07,06,03,17,9.60
2010,07,06,03,18,9.60
2010,07,06,03,19,9.60
2010,07,06,03,20,9.60
2010,07,06,03,21,9.60
2010,07,06,03,22,9.60
2010,07,06,03,23,9.60
2010,07,06,03,24,9.60
2010,07,06,03,25,9.70
2010,07,06,03,26,9.70
2010,07,06,03,27,9.70
2010,07,06,03,28,9.80
2010,07,06,03,29,9.90
2010,07,06,03,30,10.00
2010,07,06,03,31,10.10
2010,07,06,03,32,10.10
2010,07,06,03,33,10.20
2010,07,06,03,34,10.30
2010,07,06,03,35,10.30
2010,07,06,03,36,10.30
2010,07,06,03,37,10.40
2010,07,06,03,38,10.40
2010,07,06,03,39,10.40
2010,07,06,03,40,10.40
2010,07,06,03,41,10.40
2010,07,06,03,42,10.50
2010,07,06,03,43,10.50
2010,07,06,03,44,10.50
2010,07,06,03,45,10.60
2010,07,06,03,46,10.60
2010,07,06,03,47,10.60
2010,07,06,03,48,10.60
2010,07,06,03,49,10.60
2010,07,06,03,50,10.60
2010,07,06,03,51,10.60
2010,07,06,03,52,10.60
2010,07,06,03,53,10.60
2010,07,06,03,54,10.60
2010,07,06,03,55,10.60
2010,07,06,03,56,10.60
2010,07,06,03,57,10.60
2010,07,06,03,58,10.60
2010,07,06,03,59,10.60
2010,07,06,04,00,10.60
2010,07,06,04,01,10.60
2010,07,06,04,02,10.70
2010,07,06,04,03,10.70
2010,07,06,04,04,10.70
2010,07,06,04,05,10.70
2010,07,06,04,06,10.70
2010,07,06,04,07,10.70
2010,07,06,04,08,10.70
2010,07,06,04,09,10.70
2010,07,06,04,10,10.70
2010,07,06,04,11,10.70
2010,07,06,04,12,10.70
2010,07,06,04,13,10.70
2010,07,06,04,14,10.70
2010,07,06,04,15,10.70
2010,07,06,04,16,10.70
2010,07,06,04,17,10.70
2010,07,06,04,18,10.70
2010,07,06,04,19,10.70
2010,07,06,04,20,10.70
2010,07,06,04,21,10.70
2010,07,06,04,22,10.70
2010,07,06,04,23,10.80
2010,07,06,04,24,10.80
2010,07,06,04,25,10.80
2010,07,06,04,26,10.80
2010,07,06,04,27,10.80
2010,07,06,04,28,10.80
2010,07,06,04,29,10.80
2010,07,06,04,30,10.80
2010,07,06,04,31,10.80
2010,07,06,04,32,10.80
2010,07,06,04,33,10.80
2010,07,06,04,34,10.80
2010,07,06,04,35,10.80
2010,07,06,04,36,10.80
2010,07,06,04,37,10.80
2010,07,06,04,38,10.80
2010,07,06,04,39,10.80
2010,07,06,04,40,10.80
2010,07,06,04,41,10.80
2010,07,06,04,42,10.80
2010,07,06,04,43,10.80
2010,07,06,04,44,10.80
2010,07,06,04,45,10.80
2010,07,06,04,46,10.80
2010,07,06,04,47,10.80
2010,07,06,04,48,10.80
2010,07,06,04,49,10.80
2010,07,06,04,50,10.80
2010,07,06,04,51,10.80
2010,07,06,04,52,10.70
2010,07,06,04,53,10.70
2010,07,06,04,54,10.70
2010,07,06,04,55,10.70
2010,07,06,04,56,10.70
2010,07,06,04,57,10.70
2010,07,06,04,58,10.70
2010,07,06,04,59,10.70
2010,07,06,05,00,10.70
2010,07,06,05,01,10.70
2010,07,06,05,02,10.70
2010,07,06,05,03,10.80
2010,07,06,05,04,10.80
2010,07,06,05,05,10.80
2010,07,06,05,06,10.80
2010,07,06,05,07,10.80
2010,07,06,05,08,10.80
2010,07,06,05,09,10.80
2010,07,06,05,10,10.70
2010,07,06,05,11,10.70
2010,07,06,05,12,10.70
2010,07,06,05,13,10.70
2010,07,06,05,14,10.70
2010,07,06,05,15,10.70
2010,07,06,05,16,10.70
2010,07,06,05,17,10.70
2010,07,06,05,18,10.60
2010,07,06,05,19,10.60
2010,07,06,05,20,10.60
2010,07,06,05,21,10.60
2010,07,06,05,22,10.60
2010,07,06,05,23,10.60
2010,07,06,05,24,10.60
2010,07,06,05,25,10.50
2010,07,06,05,26,10.50
2010,07,06,05,27,10.50
2010,07,06,05,28,10.40
2010,07,06,05,29,10.40
2010,07,06,05,30,10.30
2010,07,06,05,31,10.30
2010,07,06,05,32,10.30
2010,07,06,05,33,10.30
2010,07,06,05,34,10.30
2010,07,06,05,35,10.30
2010,07,06,05,36,10.30
2010,07,06,05,37,10.30
2010,07,06,05,38,10.40
2010,07,06,05,39,10.40
2010,07,06,05,40,10.40
2010,07,06,05,41,10.40
2010,07,06,05,42,10.40
2010,07,06,05,43,10.40
2010,07,06,05,44,10.40
2010,07,06,05,45,10.40
2010,07,06,05,46,10.30
2010,07,06,05,47,10.30
2010,07,06,05,48,10.20
2010,07,06,05,49,10.20
2010,07,06,05,50,10.20
2010,07,06,05,51,10.10
2010,07,06,05,52,10.10
2010,07,06,05,53,10.10
2010,07,06,05,54,10.10
2010,07,06,05,55,10.00
2010,07,06,05,56,10.00
2010,07,06,05,57,10.00
2010,07,06,05,58,10.00
2010,07,06,05,59,10.00
2010,07,06,06,00,9.90
2010,07,06,06,01,9.90
2010,07,06,06,02,9.90
2010,07,06,06,03,9.90
2010,07,06,06,04,9.90
2010,07,06,06,05,9.90
2010,07,06,06,06,9.90
2010,07,06,06,07,9.90
2010,07,06,06,08,9.90
2010,07,06,06,09,9.90
2010,07,06,06,10,9.90
2010,07,06,06,11,9.90
2010,07,06,06,12,9.90
2010,07,06,06,13,9.90
2010,07,06,06,14,9.90
2010,07,06,06,15,9.90
2010,07,06,06,16,9.90
2010,07,06,06,17,9.90
2010,07,06,06,18,9.90
2010,07,06,06,19,9.90
2010,07,06,06,20,9.90
2010,07,06,06,21,9.80
2010,07,06,06,22,9.80
2010,07,06,06,23,9.80
2010,07,06,06,24,9.80
2010,07,06,06,25,9.80
2010,07,06,06,26,9.80
2010,07,06,06,27,9.80
2010,07,06,06,28,9.80
2010,07,06,06,29,9.80
2010,07,06,06,30,9.80
2010,07,06,06,31,9.80
2010,07,06,06,32,9.80
2010,07,06,06,33,9.80
2010,07,06,06,34,9.80
2010,07,06,06,35,9.90
2010,07,06,06,36,9.90
2010,07,06,06,37,9.90
2010,07,06,06,38,9.90
2010,07,06,06,39,10.00
2010,07,06,06,40,10.00
2010,07,06,06,41,10.10
2010,07,06,06,42,10.20
2010,07,06,06,43,10.20
2010,07,06,06,44,10.30
2010,07,06,06,45,10.40
2010,07,06,06,46,10.40
2010,07,06,06,47,10.40
2010,07,06,06,48,10.50
2010,07,06,06,49,10.50
2010,07,06,06,50,10.50
2010,07,06,06,51,10.60
2010,07,06,06,52,10.60
2010,07,06,06,53,10.70
2010,07,06,06,54,10.70
2010,07,06,06,55,10.80
2010,07,06,06,56,10.90
2010,07,06,06,57,10.90
2010,07,06,06,58,10.90
2010,07,06,06,59,10.90
2010,07,06,07,00,10.90
2010,07,06,07,01,10.90
2010,07,06,07,02,10.90
2010,07,06,07,03,10.90
2010,07,06,07,04,10.90
2010,07,06,07,05,11.00
2010,07,06,07,06,11.00
2010,07,06,07,07,11.10
2010,07,06,07,08,11.20
2010,07,06,07,09,11.20
2010,07,06,07,10,11.30
2010,07,06,07,11,11.40
2010,07,06,07,12,11.40
2010,07,06,07,13,11.40
2010,07,06,07,14,11.40
2010,07,06,07,15,11.40
2010,07,06,07,16,11.40
2010,07,06,07,17,11.40
2010,07,06,07,18,11.50
2010,07,06,07,19,11.50
2010,07,06,07,20,11.50
2010,07,06,07,21,11.50
2010,07,06,07,22,11.60
2010,07,06,07,23,11.60
2010,07,06,07,24,11.70
2010,07,06,07,25,11.70
2010,07,06,07,26,11.80
2010,07,06,07,27,11.80
2010,07,06,07,28,11.90
2010,07,06,07,29,11.90
2010,07,06,07,30,12.00
2010,07,06,07,31,12.10
2010,07,06,07,32,12.10
2010,07,06,07,33,12.20
2010,07,06,07,34,12.30
2010,07,06,07,35,12.30
2010,07,06,07,36,12.40
2010,07,06,07,37,12.40
2010,07,06,07,38,12.50
2010,07,06,07,39,12.50
2010,07,06,07,40,12.60
2010,07,06,07,41,12.70
2010,07,06,07,42,12.80
2010,07,06,07,43,12.80
2010,07,06,07,44,12.90
2010,07,06,07,45,12.90
2010,07,06,07,46,13.00
2010,07,06,07,47,13.00
2010,07,06,07,48,13.10
2010,07,06,07,49,13.10
2010,07,06,07,50,13.10
2010,07,06,07,51,13.20
2010,07,06,07,52,13.20
2010,07,06,07,53,13.30
2010,07,06,07,54,13.30
2010,07,06,07,55,13.30
2010,07,06,07,56,13.40
2010,07,06,07,57,13.50
2010,07,06,07,58,13.50
2010,07,06,07,59,13.60
2010,07,06,08,00,13.60
2010,07,06,08,01,13.70
2010,07,06,08,02,13.70
2010,07,06,08,03,13.70
2010,07,06,08,04,13.80
2010,07,06,08,05,13.80
2010,07,06,08,06,13.90
2010,07,06,08,07,14.00
2010,07,06,08,08,14.10
2010,07,06,08,09,14.20
2010,07,06,08,10,14.20
2010,07,06,08,11,14.30
2010,07,06,08,12,14.30
2010,07,06,08,13,14.40
2010,07,06,08,14,14.40
2010,07,06,08,15,14.50
2010,07,06,08,16,14.50
2010,07,06,08,17,14.60
2010,07,06,08,18,14.60
2010,07,06,08,19,14.60
2010,07,06,08,20,14.70
2010,07,06,08,21,14.70
2010,07,06,08,22,14.80
2010,07,06,08,23,14.90
2010,07,06,08,24,14.90
2010,07,06,08,25,15.00
2010,07,06,08,26,15.00
2010,07,06,08,27,15.10
2010,07,06,08,28,15.10
2010,07,06,08,29,15.10
2010,07,06,08,30,15.20
2010,07,06,08,31,15.30
2010,07,06,08,32,15.30
2010,07,06,08,33,15.40
2010,07,06,08,34,15.40
2010,07,06,08,35,15.50
2010,07,06,08,36,15.60
2010,07,06,08,37,15.60
2010,07,06,08,38,15.60
2010,07,06,08,39,15.60
2010,07,06,08,40,15.70
2010,07,06,08,41,15.60
2010,07,06,08,42,15.60
2010,07,06,08,43,15.60
2010,07,06,08,44,15.60
2010,07,06,08,45,15.70
2010,07,06,08,46,15.70
2010,07,06,08,47,15.80
2010,07,06,08,48,15.80
2010,07,06,08,49,15.80
2010,07,06,08,50,15.90
2010,07,06,08,51,15.90
2010,07,06,08,52,16.00
2010,07,06,08,53,16.00
2010,07,06,08,54,16.10
2010,07,06,08,55,16.10
2010,07,06,08,56,16.10
2010,07,06,08,57,16.20
2010,07,06,08,58,16.20
2010,07,06,08,59,16.20
2010,07,06,09,00,16.30
2010,07,06,09,01,16.30
2010,07,06,09,02,16.40
2010,07,06,09,03,16.50
2010,07,06,09,04,16.50
2010,07,06,09,05,16.60
2010,07,06,09,06,16.70
2010,07,06,09,07,16.70
2010,07,06,09,08,16.70
2010,07,06,09,09,16.70
2010,07,06,09,10,16.70
2010,07,06,09,11,16.70
2010,07,06,09,12,16.80
2010,07,06,09,13,16.80
2010,07,06,09,14,16.90
2010,07,06,09,15,16.90
2010,07,06,09,16,17.00
2010,07,06,09,17,17.10
2010,07,06,09,18,17.20
2010,07,06,09,19,17.20
2010,07,06,09,20,17.30
2010,07,06,09,21,17.30
2010,07,06,09,22,17.30
2010,07,06,09,23,17.50
2010,07,06,09,24,17.50
2010,07,06,09,25,17.60
2010,07,06,09,26,17.70
2010,07,06,09,27,17.80
2010,07,06,09,28,17.80
2010,07,06,09,29,17.90
2010,07,06,09,30,17.90
2010,07,06,09,31,17.90
2010,07,06,09,32,17.90
2010,07,06,09,33,17.80
2010,07,06,09,34,17.90
2010,07,06,09,35,17.90
2010,07,06,09,36,17.90
2010,07,06,09,37,17.90
2010,07,06,09,38,17.90
2010,07,06,09,39,18.00
2010,07,06,09,40,18.00
2010,07,06,09,41,18.10
2010,07,06,09,42,18.10
2010,07,06,09,43,18.20
2010,07,06,09,44,18.30
2010,07,06,09,45,18.30
2010,07,06,09,46,18.40
2010,07,06,09,47,18.50
2010,07,06,09,48,18.60
2010,07,06,09,49,18.60
2010,07,06,09,50,18.70
2010,07,06,09,51,18.70
2010,07,06,09,52,18.70
2010,07,06,09,53,18.70
2010,07,06,09,54,18.70
2010,07,06,09,55,18.70
2010,07,06,09,56,18.80
2010,07,06,09,57,18.80
2010,07,06,09,58,19.00
2010,07,06,09,59,19.00
2010,07,06,10,00,19.10
2010,07,06,10,01,19.10
2010,07,06,10,02,19.20
2010,07,06,10,03,19.20
2010,07,06,10,04,19.20
2010,07,06,10,05,19.20
2010,07,06,10,06,19.20
2010,07,06,10,07,19.20
2010,07,06,10,08,19.30
2010,07,06,10,09,19.30
2010,07,06,10,10,19.30
2010,07,06,10,11,19.40
2010,07,06,10,12,19.50
2010,07,06,10,13,19.50
2010,07,06,10,14,19.60
2010,07,06,10,15,19.70
2010,07,06,10,16,19.70
2010,07,06,10,17,19.70
2010,07,06,10,18,19.60
2010,07,06,10,19,19.60
2010,07,06,10,20,19.50
2010,07,06,10,21,19.30
2010,07,06,10,22,19.20
2010,07,06,10,23,19.10
2010,07,06,10,24,19.10
2010,07,06,10,25,19.10
2010,07,06,10,26,19.10
2010,07,06,10,27,19.10
2010,07,06,10,28,19.10
2010,07,06,10,29,19.10
2010,07,06,10,30,19.10
2010,07,06,10,31,19.10
2010,07,06,10,32,19.10
2010,07,06,10,33,19.10
2010,07,06,10,34,19.20
2010,07,06,10,35,19.20
2010,07,06,10,36,19.30
2010,07,06,10,37,19.30
2010,07,06,10,38,19.30
2010,07,06,10,39,19.30
2010,07,06,10,40,19.30
2010,07,06,10,41,19.30
2010,07,06,10,42,19.30
2010,07,06,10,43,19.30
2010,07,06,10,44,19.30
2010,07,06,10,45,19.30
2010,07,06,10,46,19.30
2010,07,06,10,47,19.30
2010,07,06,10,48,19.40
2010,07,06,10,49,19.40
2010,07,06,10,50,19.40
2010,07,06,10,51,19.50
2010,07,06,10,52,19.50
2010,07,06,10,53,19.50
2010,07,06,10,54,19.60
2010,07,06,10,55,19.60
2010,07,06,10,56,19.60
2010,07,06,10,57,19.60
2010,07,06,10,58,19.60
2010,07,06,10,59,19.50
2010,07,06,11,00,19.50
2010,07,06,11,01,19.50
2010,07,06,11,02,19.50
2010,07,06,11,03,19.40
2010,07,06,11,04,19.30
2010,07,06,11,05,19.10
2010,07,06,11,06,18.80
2010,07,06,11,07,18.60
2010,07,06,11,08,18.20
2010,07,06,11,09,17.80
2010,07,06,11,10,17.40
2010,07,06,11,11,17.10
2010,07,06,11,12,16.80
2010,07,06,11,13,16.40
2010,07,06,11,14,16.20
2010,07,06,11,15,16.10
2010,07,06,11,16,15.90
2010,07,06,11,17,15.80
2010,07,06,11,18,15.70
2010,07,06,11,19,15.60
2010,07,06,11,20,15.40
2010,07,06,11,21,15.30
2010,07,06,11,22,15.30
2010,07,06,11,23,15.20
2010,07,06,11,24,15.20
2010,07,06,11,25,15.10
2010,07,06,11,26,15.00
2010,07,06,11,27,14.90
2010,07,06,11,28,14.90
2010,07,06,11,29,14.90
2010,07,06,11,30,14.90
2010,07,06,11,31,15.00
2010,07,06,11,32,15.00
2010,07,06,11,33,15.00
2010,07,06,11,34,14.90
2010,07,06,11,35,14.80
2010,07,06,11,36,14.80
2010,07,06,11,37,14.80
2010,07,06,11,38,14.80
2010,07,06,11,39,14.80
2010,07,06,11,40,14.90
2010,07,06,11,41,15.00
2010,07,06,11,42,15.10
2010,07,06,11,43,15.10
2010,07,06,11,44,15.20
2010,07,06,11,45,15.30
2010,07,06,11,46,15.30
2010,07,06,11,47,15.40
2010,07,06,11,48,15.40
2010,07,06,11,49,15.60
2010,07,06,11,50,15.70
2010,07,06,11,51,15.90
2010,07,06,11,52,16.10
2010,07,06,11,53,16.30
2010,07,06,11,54,16.50
2010,07,06,11,55,16.60
2010,07,06,11,56,16.60
2010,07,06,11,57,16.70
2010,07,06,11,58,16.80
2010,07,06,11,59,17.00
2010,07,06,12,00,17.10
2010,07,06,12,01,17.20
2010,07,06,12,02,17.20
2010,07,06,12,03,17.30
2010,07,06,12,04,17.30
2010,07,06,12,05,17.30
2010,07,06,12,06,17.30
2010,07,06,12,07,17.30
2010,07,06,12,08,17.30
2010,07,06,12,09,17.30
2010,07,06,12,10,17.40
2010,07,06,12,11,17.50
2010,07,06,12,12,17.40
2010,07,06,12,13,17.40
2010,07,06,12,14,17.30
2010,07,06,12,15,17.30
2010,07,06,12,16,17.30
2010,07,06,12,17,17.20
2010,07,06,12,18,17.20
2010,07,06,12,19,17.20
2010,07,06,12,20,17.20
2010,07,06,12,21,17.20
2010,07,06,12,22,17.20
2010,07,06,12,23,17.30
2010,07,06,12,24,17.30
2010,07,06,12,25,17.40
2010,07,06,12,26,17.50
2010,07,06,12,27,17.60
2010,07,06,12,28,17.70
2010,07,06,12,29,17.70
2010,07,06,12,30,17.80
2010,07,06,12,31,17.80
2010,07,06,12,32,17.90
2010,07,06,12,33,17.90
2010,07,06,12,34,17.90
2010,07,06,12,35,17.90
2010,07,06,12,36,17.90
2010,07,06,12,37,17.80
2010,07,06,12,38,17.80
2010,07,06,12,39,17.80
2010,07,06,12,40,17.70
2010,07,06,12,41,17.60
2010,07,06,12,42,17.60
2010,07,06,12,43,17.70
2010,07,06,12,44,17.80
2010,07,06,12,45,17.90
2010,07,06,12,46,17.90
2010,07,06,12,47,17.90
2010,07,06,12,48,17.90
2010,07,06,12,49,17.80
2010,07,06,12,50,17.70
2010,07,06,12,51,17.60
2010,07,06,12,52,17.60
2010,07,06,12,53,17.60
2010,07,06,12,54,17.60
2010,07,06,12,55,17.60
2010,07,06,12,56,17.60
2010,07,06,12,57,17.70
2010,07,06,12,58,17.70
2010,07,06,12,59,17.80
2010,07,06,13,00,17.80
2010,07,06,13,01,17.80
2010,07,06,13,02,17.80
2010,07,06,13,03,17.80
2010,07,06,13,04,17.80
2010,07,06,13,05,17.90
2010,07,06,13,06,17.90
2010,07,06,13,07,18.00
2010,07,06,13,08,18.10
2010,07,06,13,09,18.10
2010,07,06,13,10,18.20
2010,07,06,13,11,18.30
2010,07,06,13,12,18.30
2010,07,06,13,13,18.40
2010,07,06,13,14,18.50
2010,07,06,13,15,18.50
2010,07,06,13,16,18.50
2010,07,06,13,17,18.50
2010,07,06,13,18,18.60
2010,07,06,13,19,18.70
2010,07,06,13,20,18.80
2010,07,06,13,21,19.00
2010,07,06,13,22,19.20
2010,07,06,13,23,19.30
2010,07,06,13,24,19.30
2010,07,06,13,25,19.20
2010,07,06,13,26,19.10
2010,07,06,13,27,19.00
2010,07,06,13,28,18.90
2010,07,06,13,29,18.80
2010,07,06,13,30,18.80
2010,07,06,13,31,18.70
2010,07,06,13,32,18.80
2010,07,06,13,33,18.90
2010,07,06,13,34,18.90
2010,07,06,13,35,19.00
2010,07,06,13,36,19.10
2010,07,06,13,37,19.10
2010,07,06,13,38,19.20
2010,07,06,13,39,19.20
2010,07,06,13,40,19.30
2010,07,06,13,41,19.20
2010,07,06,13,42,19.20
2010,07,06,13,43,19.20
2010,07,06,13,44,19.30
2010,07,06,13,45,19.30
2010,07,06,13,46,19.40
2010,07,06,13,47,19.30
2010,07,06,13,48,19.30
2010,07,06,13,49,19.30
2010,07,06,13,50,19.30
2010,07,06,13,51,19.30
2010,07,06,13,52,19.30
2010,07,06,13,53,19.30
2010,07,06,13,54,19.20
2010,07,06,13,55,19.20
2010,07,06,13,56,19.10
2010,07,06,13,57,19.20
2010,07,06,13,58,19.30
2010,07,06,13,59,19.30
2010,07,06,14,00,19.30
2010,07,06,14,01,19.30
2010,07,06,14,02,19.40
2010,07,06,14,03,19.40
2010,07,06,14,04,19.50
2010,07,06,14,05,19.50
2010,07,06,14,06,19.50
2010,07,06,14,07,19.60
2010,07,06,14,08,19.70
2010,07,06,14,09,19.70
2010,07,06,14,10,19.70
2010,07,06,14,11,19.80
2010,07,06,14,12,19.90
2010,07,06,14,13,19.90
2010,07,06,14,14,20.00
2010,07,06,14,15,20.00
2010,07,06,14,16,20.00
2010,07,06,14,17,20.10
2010,07,06,14,18,20.10
2010,07,06,14,19,20.20
2010,07,06,14,20,20.30
2010,07,06,14,21,20.30
2010,07,06,14,22,20.30
2010,07,06,14,23,20.30
2010,07,06,14,24,20.40
2010,07,06,14,25,20.40
2010,07,06,14,26,20.30
2010,07,06,14,27,20.30
2010,07,06,14,28,20.20
2010,07,06,14,29,20.10
2010,07,06,14,30,20.00
2010,07,06,14,31,20.00
2010,07,06,14,32,20.00
2010,07,06,14,33,19.90
2010,07,06,14,34,19.90
2010,07,06,14,35,19.90
2010,07,06,14,36,20.00
2010,07,06,14,37,20.10
2010,07,06,14,38,20.20
2010,07,06,14,39,20.20
2010,07,06,14,40,20.20
2010,07,06,14,41,20.20
2010,07,06,14,42,20.20
2010,07,06,14,43,20.20
2010,07,06,14,44,20.20
2010,07,06,14,45,20.10
2010,07,06,14,46,20.20
2010,07,06,14,47,20.30
2010,07,06,14,48,20.20
2010,07,06,14,49,20.10
2010,07,06,14,50,20.00
2010,07,06,14,51,20.00
2010,07,06,14,52,20.00
2010,07,06,14,53,20.00
2010,07,06,14,54,20.10
2010,07,06,14,55,20.10
2010,07,06,14,56,20.20
2010,07,06,14,57,20.20
2010,07,06,14,58,20.20
2010,07,06,14,59,20.20
2010,07,06,15,00,20.20
2010,07,06,15,01,20.20
2010,07,06,15,02,20.20
2010,07,06,15,03,20.20
2010,07,06,15,04,20.30
2010,07,06,15,05,20.40
2010,07,06,15,06,20.50
2010,07,06,15,07,20.50
2010,07,06,15,08,20.60
2010,07,06,15,09,20.60
2010,07,06,15,10,20.60
2010,07,06,15,11,20.70
2010,07,06,15,12,20.70
2010,07,06,15,13,20.60
2010,07,06,15,14,20.70
2010,07,06,15,15,20.60
2010,07,06,15,16,20.60
2010,07,06,15,17,20.50
2010,07,06,15,18,20.50
2010,07,06,15,19,20.60
2010,07,06,15,20,20.60
2010,07,06,15,21,20.70
2010,07,06,15,22,20.70
2010,07,06,15,23,20.60
2010,07,06,15,24,20.50
2010,07,06,15,25,20.50
2010,07,06,15,26,20.40
2010,07,06,15,27,20.30
2010,07,06,15,28,20.30
2010,07,06,15,29,20.30
2010,07,06,15,30,20.30
2010,07,06,15,31,20.30
2010,07,06,15,32,20.20
2010,07,06,15,33,20.20
2010,07,06,15,34,20.10
2010,07,06,15,35,20.10
2010,07,06,15,36,20.10
2010,07,06,15,37,20.10
2010,07,06,15,38,20.10
2010,07,06,15,39,20.10
2010,07,06,15,40,20.10
2010,07,06,15,41,20.20
2010,07,06,15,42,20.20
2010,07,06,15,43,20.30
2010,07,06,15,44,20.30
2010,07,06,15,45,20.30
2010,07,06,15,46,20.30
2010,07,06,15,47,20.30
2010,07,06,15,48,20.30
2010,07,06,15,49,20.40
2010,07,06,15,50,20.40
2010,07,06,15,51,20.50
2010,07,06,15,52,20.50
2010,07,06,15,53,20.50
2010,07,06,15,54,20.40
2010,07,06,15,55,20.30
2010,07,06,15,56,20.30
2010,07,06,15,57,20.40
2010,07,06,15,58,20.40
2010,07,06,15,59,20.30
2010,07,06,16,00,20.30
2010,07,06,16,01,20.20
2010,07,06,16,02,20.20
2010,07,06,16,03,20.10
2010,07,06,16,04,20.10
2010,07,06,16,05,20.10
2010,07,06,16,06,20.00
2010,07,06,16,07,19.90
2010,07,06,16,08,19.80
2010,07,06,16,09,19.80
2010,07,06,16,10,19.70
2010,07,06,16,11,19.60
2010,07,06,16,12,19.60
2010,07,06,16,13,19.60
2010,07,06,16,14,19.70
2010,07,06,16,15,19.70
2010,07,06,16,16,19.70
2010,07,06,16,17,19.80
2010,07,06,16,18,19.80
2010,07,06,16,19,19.70
2010,07,06,16,20,19.70
2010,07,06,16,21,19.70
2010,07,06,16,22,19.60
2010,07,06,16,23,19.60
2010,07,06,16,24,19.60
2010,07,06,16,25,19.70
2010,07,06,16,26,19.70
2010,07,06,16,27,19.80
2010,07,06,16,28,19.90
2010,07,06,16,29,20.00
2010,07,06,16,30,20.10
2010,07,06,16,31,20.10
2010,07,06,16,32,20.20
2010,07,06,16,33,20.20
2010,07,06,16,34,20.30
2010,07,06,16,35,20.20
2010,07,06,16,36,20.20
2010,07,06,16,37,20.10
2010,07,06,16,38,20.20
2010,07,06,16,39,20.30
2010,07,06,16,40,20.40
2010,07,06,16,41,20.50
2010,07,06,16,42,20.60
2010,07,06,16,43,20.70
2010,07,06,16,44,20.60
2010,07,06,16,45,20.50
2010,07,06,16,46,20.50
2010,07,06,16,47,20.40
2010,07,06,16,48,20.30
2010,07,06,16,49,20.20
2010,07,06,16,50,20.10
2010,07,06,16,51,20.00
2010,07,06,16,52,19.90
2010,07,06,16,53,20.00
2010,07,06,16,54,20.00
2010,07,06,16,55,20.10
2010,07,06,16,56,20.20
2010,07,06,16,57,20.30
2010,07,06,16,58,20.30
2010,07,06,16,59,20.40
2010,07,06,17,00,20.50
2010,07,06,17,01,20.50
2010,07,06,17,02,20.50
2010,07,06,17,03,20.50
2010,07,06,17,04,20.40
2010,07,06,17,05,20.50
2010,07,06,17,06,20.60
2010,07,06,17,07,20.60
2010,07,06,17,08,20.60
2010,07,06,17,09,20.60
2010,07,06,17,10,20.50
2010,07,06,17,11,20.40
2010,07,06,17,12,20.40
2010,07,06,17,13,20.40
2010,07,06,17,14,20.40
2010,07,06,17,15,20.50
2010,07,06,17,16,20.50
2010,07,06,17,17,20.50
2010,07,06,17,18,20.60
2010,07,06,17,19,20.70
2010,07,06,17,20,20.80
2010,07,06,17,21,20.80
2010,07,06,17,22,20.80
2010,07,06,17,23,20.90
2010,07,06,17,24,20.90
2010,07,06,17,25,20.90
2010,07,06,17,26,20.90
2010,07,06,17,27,20.70
2010,07,06,17,28,20.60